Location: Wangen+im+Allg�u
(47.7098°N, 9.8383°E)
Time: 12:53:38
(UTC+01:00)

Tiangong 2 - Visible Passes

Search period start: 21 November 2017 00:00
Search period end: 01 December 2017 00:00
Orbit: 386 x 392 km, 42.8° (Epoch: 20 November)

Date Brightness Start Highest point End Pass type
(mag) Time Alt. Az. Time Alt. Az. Time Alt. Az.
27 Nov 3.9 06:49:52 10° SSW 06:52:03 17° SSE 06:54:14 10° ESE visible
28 Nov 4.1 05:52:44 10° S 05:54:04 12° SSE 05:55:23 10° SE visible
29 Nov 3.3 06:29:35 10° SW 06:32:12 23° SSE 06:34:49 10° ESE visible
30 Nov 3.5 05:33:28 17° S 05:34:09 18° SSE 05:36:23 10° ESE visible
30 Nov 2.7 07:07:34 10° WSW 07:10:29 32° S 07:13:24 10° ESE visible
